This is the latest recevied weather packets stored in our database for station/object KN6CRX. If no packets are shown the sender has not sent any weather packets the latest 10 day(s).
| Time | Temp. | Humidity | Pressure | Rain* | Wind** | Luminosity | Snow |
|---|---|---|---|---|---|---|---|
| 1787793855 | 26.67° C | 35% | 1021.5 hPa | 0 mm | - | 47 W/m² | - |
| 1787793550 | 26.11° C | 36% | 1021.6 hPa | 0 mm | - | 61 W/m² | - |
| 1787793245 | 25° C | 37% | 1021.6 hPa | 0 mm | - | 74 W/m² | - |
| 1787792940 | 25° C | 40% | 1021.7 hPa | 0 mm | - | 46 W/m² | - |
| 1787792635 | 25° C | 40% | 1021.8 hPa | 0 mm | - | 67 W/m² | - |
| 1787792332 | 25° C | 39% | 1021.7 hPa | 0 mm | - | 56 W/m² | - |
| 1787792031 | 25° C | 39% | 1021.8 hPa | 0 mm | - | 58 W/m² | - |
| 1787791730 | 25.56° C | 37% | 1021.7 hPa | 0 mm | - | 71 W/m² | - |
| 1787791425 | 25.56° C | 37% | 1022 hPa | 0 mm | - | 74 W/m² | - |
| 1787791121 | 25.56° C | 36% | 1021.8 hPa | 0 mm | - | 85 W/m² | - |
| 1787790816 | 26.11° C | 37% | 1021.8 hPa | 0 mm | - | 111 W/m² | - |
| 1787790516 | 26.11° C | 36% | 1022.1 hPa | 0 mm | - | 129 W/m² | - |
| 1787790212 | 26.67° C | 35% | 1021.7 hPa | 0 mm | - | 183 W/m² | - |
| 1787789908 | 27.22° C | 33% | 1021.8 hPa | 0 mm | - | 148 W/m² | - |
| 1787789607 | 28.33° C | 30% | 1021.8 hPa | 0 mm | - | 111 W/m² | - |
| 1787789306 | 30° C | 29% | 1021.7 hPa | 0 mm | - | 82 W/m² | - |
| 1787789002 | 30.56° C | 28% | 1021.6 hPa | 0 mm | - | 85 W/m² | - |
| 1787788700 | 30.56° C | 28% | 1021.5 hPa | 0 mm | - | 105 W/m² | - |
| 1787788400 | 31.11° C | 28% | 1021.3 hPa | 0 mm | - | 121 W/m² | - |
| 1787788095 | 31.11° C | 29% | 1021.4 hPa | 0 mm | - | 116 W/m² | - |
| 1787787790 | 31.11° C | 29% | 1021.5 hPa | 0 mm | - | 96 W/m² | - |
| 1787787488 | 31.11° C | 27% | 1021.5 hPa | 0 mm | - | 103 W/m² | - |
| 1787787183 | 31.67° C | 28% | 1021.5 hPa | 0 mm | - | 123 W/m² | - |
| 1787786883 | 31.67° C | 25% | 1021.6 hPa | 0 mm | - | 137 W/m² | - |
| 1787786578 | 31.67° C | 28% | 1021.5 hPa | 0 mm | - | 136 W/m² | - |
* Rain latest hour (hover to see other rain measurements)
** Current wind speed in m/s (hover to see current wind gust speed)